| time (UTC) | temp C | wind direction | speed KPH | gust KPH | rain 1hr cm | rain 24hr cm | rain mn cm | humidity % | barometer mb |
| 20260508012004 | 11 | 276 | 0.0 | 3.2 | 0.00 | 0.20 | 0.00 | 90 | 953.3 |
| 20260508011504 | 11 | 274 | 0.0 | 1.6 | 0.00 | 0.20 | 0.00 | 90 | 953.3 |
| 20260508011004 | 11 | 296 | 0.0 | 6.4 | 0.00 | 0.20 | 0.00 | 90 | 953.4 |
| 20260508010504 | 11 | 223 | 0.0 | 6.4 | 0.00 | 0.20 | 0.00 | 90 | 953.4 |
| 20260508010004 | 11 | 191 | 1.6 | 6.4 | 0.00 | 0.20 | 0.00 | 90 | 953.4 |
| 20260508005504 | 11 | 0 | 0.0 | 3.2 | 0.00 | 0.20 | 0.00 | 90 | 953.4 |
| 20260508005004 | 11 | 283 | 3.2 | 6.4 | 0.00 | 0.20 | 0.00 | 90 | 953.4 |
| 20260508004504 | 11 | 279 | 1.6 | 6.4 | 0.00 | 0.20 | 0.00 | 90 | 953.4 |
| 20260508004004 | 11 | 277 | 0.0 | 4.8 | 0.00 | 0.20 | 0.00 | 90 | 953.3 |
| 20260508003504 | 11 | 281 | 0.0 | 4.8 | 0.00 | 0.20 | 0.00 | 90 | 953.4 |
| 20260508003005 | 11 | 281 | 0.0 | 8.0 | 0.00 | 0.20 | 0.00 | 89 | 953.5 |
| 20260508002504 | 11 | 251 | 0.0 | 8.0 | 0.00 | 0.20 | 0.00 | 89 | 953.5 |
| 20260508002004 | 11 | 249 | 4.8 | 6.4 | 0.00 | 0.20 | 0.00 | 89 | 953.6 |
| 20260508001504 | 11 | 184 | 4.8 | 4.8 | 0.00 | 0.20 | 0.00 | 90 | 953.5 |
| 20260508001004 | 11 | 173 | 0.0 | 3.2 | 0.00 | 0.20 | 0.00 | 90 | 953.6 |
| 20260508000504 | 11 | 282 | 0.0 | 1.6 | 0.00 | 0.20 | 0.00 | 89 | 953.7 |
| 20260508000004 | 11 | 0 | 0.0 | 3.2 | 0.00 | 0.20 | 0.00 | 89 | 953.7 |
| 20260507235504 | 11 | 282 | 0.0 | 3.2 | 0.00 | 0.20 | 0.00 | 89 | 953.6 |
| 20260507235004 | 11 | 282 | 0.0 | 1.6 | 0.00 | 0.20 | 0.00 | 88 | 953.7 |
| 20260507234504 | 11 | 275 | 0.0 | 3.2 | 0.00 | 0.20 | 0.00 | 88 | 953.8 |
| 20260507234004 | 11 | 280 | 0.0 | 6.4 | 0.00 | 0.20 | 0.00 | 88 | 953.7 |
| 20260507233504 | 11 | 282 | 1.6 | 6.4 | 0.00 | 0.20 | 0.00 | 88 | 953.8 |
| 20260507233004 | 11 | 276 | 3.2 | 4.8 | 0.00 | 0.20 | 0.00 | 88 | 954.0 |
| 20260507232503 | 11 | 283 | 0.0 | 6.4 | 0.00 | 0.20 | 0.00 | 87 | 954.0 |
| 20260507232004 | 12 | 237 | 3.2 | 6.4 | 0.00 | 0.20 | 0.00 | 87 | 954.0 |
| 20260507231504 | 11 | 291 | 4.8 | 8.0 | 0.00 | 0.20 | 0.00 | 87 | 953.9 |
| 20260507231004 | 11 | 241 | 1.6 | 8.0 | 0.00 | 0.20 | 0.00 | 87 | 954.0 |
| 20260507230503 | 12 | 285 | 1.6 | 3.2 | 0.00 | 0.20 | 0.00 | 88 | 954.0 |
| 20260507230006 | 12 | 287 | 0.0 | 3.2 | 0.00 | 0.20 | 0.00 | 87 | 954.1 |
| 20260507225503 | 12 | 0 | 0.0 | 1.6 | 0.00 | 0.20 | 0.00 | 86 | 954.1 |
| 20260507225004 | 12 | 297 | 0.0 | 1.6 | 0.00 | 0.20 | 0.00 | 85 | 954.2 |
| 20260507224504 | 12 | 288 | 0.0 | 1.6 | 0.00 | 0.20 | 0.00 | 86 | 954.2 |
| 20260507224004 | 12 | 0 | 0.0 | 3.2 | 0.00 | 0.20 | 0.00 | 86 | 954.3 |
| 20260507223503 | 12 | 0 | 0.0 | 3.2 | 0.00 | 0.20 | 0.00 | 85 | 954.3 |
| 20260507223003 | 12 | 0 | 0.0 | 1.6 | 0.00 | 0.20 | 0.00 | 85 | 954.3 |
| 20260507222504 | 12 | 0 | 0.0 | 0.0 | 0.00 | 0.20 | 0.00 | 84 | 954.3 |
| 20260507222004 | 13 | 0 | 0.0 | 1.6 | 0.00 | 0.20 | 0.00 | 84 | 954.3 |
| 20260507221504 | 13 | 346 | 0.0 | 1.6 | 0.00 | 0.20 | 0.00 | 84 | 954.3 |
| 20260507221004 | 12 | 288 | 0.0 | 4.8 | 0.00 | 0.20 | 0.00 | 83 | 954.3 |
| 20260507220504 | 12 | 288 | 0.0 | 4.8 | 0.00 | 0.20 | 0.00 | 83 | 954.3 |
| 20260507220004 | 12 | 288 | 0.0 | 1.6 | 0.00 | 0.20 | 0.00 | 84 | 954.3 |
| 20260507215504 | 12 | 0 | 0.0 | 1.6 | 0.00 | 0.20 | 0.00 | 83 | 954.3 |
| 20260507215004 | 12 | 285 | 0.0 | 6.4 | 0.00 | 0.20 | 0.00 | 83 | 954.3 |
| 20260507214504 | 12 | 255 | 1.6 | 6.4 | 0.00 | 0.20 | 0.00 | 82 | 954.3 |
| 20260507214004 | 12 | 280 | 0.0 | 4.8 | 0.00 | 0.20 | 0.00 | 84 | 954.4 |
| 20260507213504 | 12 | 275 | 1.6 | 6.4 | 0.00 | 0.20 | 0.00 | 83 | 954.4 |
| 20260507213004 | 12 | 240 | 0.0 | 6.4 | 0.00 | 0.20 | 0.00 | 83 | 954.4 |
| 20260507212503 | 12 | 270 | 3.2 | 4.8 | 0.00 | 0.20 | 0.00 | 83 | 954.4 |
| 20260507212004 | 12 | 0 | 0.0 | 1.6 | 0.00 | 0.20 | 0.00 | 83 | 954.3 |
| 20260507211504 | 12 | 286 | 0.0 | 1.6 | 0.00 | 0.20 | 0.00 | 83 | 954.3 |
| 20260507211004 | 12 | 0 | 0.0 | 4.8 | 0.00 | 0.20 | 0.00 | 83 | 954.2 |
| 20260507210004 | 12 | 0 | 0.0 | 3.2 | 0.00 | 0.20 | 0.00 | 83 | 954.1 |
| 20260507205503 | 12 | 314 | 0.0 | 3.2 | 0.00 | 0.20 | 0.00 | 83 | 954.2 |
| 20260507205004 | 12 | 288 | 0.0 | 0.0 | 0.00 | 0.20 | 0.00 | 82 | 954.1 |
| 20260507204503 | 12 | 0 | 0.0 | 1.6 | 0.00 | 0.20 | 0.00 | 82 | 954.3 |
| 20260507204003 | 12 | 0 | 0.0 | 4.8 | 0.00 | 0.20 | 0.00 | 82 | 954.3 |
| 20260507203503 | 12 | 293 | 1.6 | 4.8 | 0.00 | 0.20 | 0.00 | 82 | 954.4 |
| 20260507203003 | 12 | 290 | 1.6 | 3.2 | 0.00 | 0.20 | 0.00 | 82 | 954.4 |
| 20260507202503 | 12 | 286 | 0.0 | 4.8 | 0.00 | 0.20 | 0.00 | 82 | 954.3 |
| 20260507202004 | 12 | 280 | 1.6 | 4.8 | 0.00 | 0.20 | 0.00 | 82 | 954.3 |
| 20260507201503 | 12 | 280 | 3.2 | 4.8 | 0.00 | 0.20 | 0.00 | 82 | 954.4 |
| 20260507201003 | 12 | 283 | 0.0 | 4.8 | 0.00 | 0.20 | 0.00 | 82 | 954.4 |
| 20260507200503 | 12 | 279 | 0.0 | 3.2 | 0.00 | 0.20 | 0.00 | 82 | 954.3 |
| 20260507200004 | 12 | 287 | 0.0 | 4.8 | 0.00 | 0.20 | 0.00 | 82 | 954.4 |
| 20260507195503 | 12 | 273 | 0.0 | 4.8 | 0.00 | 0.20 | 0.00 | 82 | 954.3 |
| 20260507195003 | 13 | 277 | 1.6 | 4.8 | 0.00 | 0.20 | 0.00 | 81 | 954.3 |
| 20260507194503 | 13 | 0 | 0.0 | 4.8 | 0.00 | 0.20 | 0.00 | 80 | 954.4 |
| 20260507194003 | 13 | 253 | 3.2 | 4.8 | 0.00 | 0.20 | 0.00 | 79 | 954.3 |
| 20260507193503 | 13 | 273 | 1.6 | 6.4 | 0.00 | 0.20 | 0.00 | 79 | 954.3 |
| 20260507193003 | 13 | 259 | 1.6 | 8.0 | 0.00 | 0.20 | 0.00 | 78 | 954.3 |
| 20260507192503 | 14 | 197 | 6.4 | 8.0 | 0.00 | 0.20 | 0.00 | 78 | 954.3 |
| 20260507192003 | 14 | 279 | 0.0 | 4.8 | 0.00 | 0.20 | 0.00 | 77 | 954.3 |
| 20260507191503 | 15 | 286 | 0.0 | 4.8 | 0.00 | 0.20 | 0.00 | 75 | 954.1 |
| 20260507191003 | 15 | 281 | 0.0 | 4.8 | 0.00 | 0.20 | 0.00 | 73 | 954.3 |
| 20260507190503 | 15 | 202 | 0.0 | 6.4 | 0.00 | 0.20 | 0.00 | 73 | 954.1 |
| 20260507190004 | 15 | 110 | 0.0 | 6.4 | 0.00 | 0.20 | 0.00 | 72 | 954.1 |
| 20260507185503 | 15 | 0 | 0.0 | 4.8 | 0.00 | 0.20 | 0.00 | 71 | 954.0 |
| 20260507185003 | 16 | 120 | 1.6 | 4.8 | 0.00 | 0.20 | 0.00 | 71 | 953.9 |
| 20260507184503 | 16 | 61 | 0.0 | 3.2 | 0.00 | 0.20 | 0.00 | 70 | 953.9 |
| 20260507184003 | 16 | 77 | 0.0 | 4.8 | 0.00 | 0.20 | 0.00 | 70 | 953.9 |
| 20260507183503 | 16 | 64 | 1.6 | 6.4 | 0.00 | 0.20 | 0.00 | 69 | 953.9 |
| 20260507183003 | 16 | 82 | 1.6 | 6.4 | 0.00 | 0.20 | 0.00 | 69 | 953.9 |
| 20260507182503 | 16 | 69 | 0.0 | 3.2 | 0.00 | 0.20 | 0.00 | 68 | 953.9 |
| 20260507182003 | 16 | 0 | 0.0 | 3.2 | 0.00 | 0.20 | 0.00 | 68 | 953.8 |
| 20260507181503 | 16 | 346 | 0.0 | 3.2 | 0.00 | 0.20 | 0.00 | 68 | 953.8 |
| 20260507181003 | 17 | 0 | 0.0 | 3.2 | 0.00 | 0.20 | 0.00 | 66 | 953.8 |
| 20260507180503 | 17 | 0 | 0.0 | 3.2 | 0.00 | 0.20 | 0.00 | 66 | 953.8 |
| 20260507180003 | 17 | 103 | 0.0 | 3.2 | 0.00 | 0.20 | 0.00 | 64 | 953.8 |
| 20260507175503 | 17 | 10 | 0.0 | 3.2 | 0.00 | 0.20 | 0.00 | 63 | 953.8 |
| 20260507175003 | 17 | 107 | 0.0 | 3.2 | 0.00 | 0.20 | 0.00 | 63 | 953.7 |
| 20260507174503 | 17 | 335 | 0.0 | 9.7 | 0.00 | 0.20 | 0.00 | 63 | 953.7 |
| 20260507174003 | 17 | 87 | 3.2 | 9.7 | 0.00 | 0.20 | 0.00 | 63 | 953.7 |
| 20260507173503 | 18 | 103 | 3.2 | 8.0 | 0.00 | 0.20 | 0.00 | 62 | 953.6 |
| 20260507173003 | 18 | 108 | 1.6 | 9.7 | 0.00 | 0.20 | 0.00 | 60 | 953.6 |
| 20260507172503 | 18 | 355 | 1.6 | 9.7 | 0.00 | 0.20 | 0.00 | 59 | 953.6 |
| 20260507172003 | 18 | 26 | 3.2 | 8.0 | 0.00 | 0.20 | 0.00 | 59 | 953.6 |
| 20260507171503 | 19 | 0 | 0.0 | 8.0 | 0.00 | 0.20 | 0.00 | 57 | 953.5 |
| 20260507171003 | 20 | 29 | 3.2 | 8.0 | 0.00 | 0.20 | 0.00 | 57 | 953.5 |
| 20260507170503 | 20 | 47 | 1.6 | 9.7 | 0.00 | 0.20 | 0.00 | 57 | 953.4 |
| 20260507170003 | 20 | 51 | 1.6 | 9.7 | 0.00 | 0.20 | 0.00 | 57 | 953.2 |
| 20260507165503 | 20 | 47 | 1.6 | 8.0 | 0.00 | 0.20 | 0.00 | 56 | 953.2 |
| 20260507165003 | 20 | 31 | 3.2 | 11.3 | 0.00 | 0.20 | 0.00 | 57 | 953.2 |
| 20260507164503 | 20 | 72 | 1.6 | 11.3 | 0.00 | 0.20 | 0.00 | 57 | 953.2 |
| 20260507164003 | 20 | 71 | 0.0 | 9.7 | 0.00 | 0.20 | 0.00 | 57 | 953.3 |
| 20260507163503 | 20 | 76 | 3.2 | 9.7 | 0.00 | 0.20 | 0.00 | 58 | 953.2 |
| 20260507162503 | 20 | 91 | 3.2 | 9.7 | 0.00 | 0.20 | 0.00 | 57 | 953.2 |
| 20260507162003 | 20 | 87 | 1.6 | 9.7 | 0.00 | 0.20 | 0.00 | 55 | 953.2 |
| 20260507161503 | 20 | 104 | 4.8 | 11.3 | 0.00 | 0.20 | 0.00 | 57 | 953.2 |
| 20260507161003 | 20 | 83 | 3.2 | 12.9 | 0.00 | 0.20 | 0.00 | 54 | 953.1 |
| 20260507160503 | 20 | 83 | 6.4 | 12.9 | 0.00 | 0.20 | 0.00 | 52 | 953.1 |
| 20260507160003 | 20 | 99 | 6.4 | 11.3 | 0.00 | 0.20 | 0.00 | 52 | 953.1 |
| 20260507155503 | 21 | 86 | 4.8 | 11.3 | 0.00 | 0.20 | 0.00 | 48 | 953.1 |
| 20260507155003 | 21 | 101 | 4.8 | 12.9 | 0.00 | 0.20 | 0.00 | 48 | 953.1 |
| 20260507154503 | 21 | 80 | 6.4 | 12.9 | 0.00 | 0.20 | 0.00 | 45 | 953.2 |
| 20260507154003 | 21 | 81 | 0.0 | 9.7 | 0.00 | 0.20 | 0.00 | 50 | 953.1 |
| 20260507153503 | 21 | 92 | 3.2 | 11.3 | 0.00 | 0.20 | 0.00 | 48 | 953.2 |
| 20260507153003 | 21 | 91 | 4.8 | 11.3 | 0.00 | 0.20 | 0.00 | 47 | 953.2 |
| 20260507152503 | 21 | 59 | 1.6 | 14.5 | 0.00 | 0.20 | 0.00 | 45 | 953.2 |
| 20260507152003 | 21 | 97 | 4.8 | 14.5 | 0.00 | 0.20 | 0.00 | 45 | 953.2 |
| 20260507151503 | 21 | 81 | 1.6 | 12.9 | 0.00 | 0.20 | 0.00 | 44 | 953.1 |
| 20260507151003 | 21 | 94 | 3.2 | 8.0 | 0.00 | 0.20 | 0.00 | 43 | 953.2 |
| 20260507150503 | 21 | 63 | 1.6 | 16.1 | 0.00 | 0.20 | 0.00 | 41 | 953.1 |
| 20260507150003 | 21 | 77 | 4.8 | 16.1 | 0.00 | 0.20 | 0.00 | 43 | 953.1 |
| 20260507145502 | 21 | 94 | 6.4 | 11.3 | 0.00 | 0.20 | 0.00 | 44 | 953.2 |
| 20260507145003 | 21 | 105 | 4.8 | 16.1 | 0.00 | 0.20 | 0.00 | 44 | 953.2 |
| 20260507144503 | 21 | 71 | 3.2 | 16.1 | 0.00 | 0.20 | 0.00 | 44 | 953.4 |
| 20260507144003 | 21 | 73 | 1.6 | 11.3 | 0.00 | 0.20 | 0.00 | 44 | 953.4 |
| 20260507143003 | 21 | 87 | 6.4 | 16.1 | 0.00 | 0.20 | 0.00 | 44 | 953.5 |
| 20260507142502 | 21 | 96 | 9.7 | 16.1 | 0.00 | 0.20 | 0.00 | 44 | 953.6 |
| 20260507142002 | 21 | 99 | 11.3 | 16.1 | 0.00 | 0.20 | 0.00 | 42 | 953.6 |
| 20260507141502 | 21 | 96 | 6.4 | 12.9 | 0.00 | 0.20 | 0.00 | 51 | 953.6 |
| 20260507141002 | 21 | 91 | 6.4 | 12.9 | 0.00 | 0.20 | 0.00 | 50 | 953.7 |
| 20260507140502 | 21 | 17 | 1.6 | 9.7 | 0.00 | 0.20 | 0.00 | 54 | 953.7 |
| 20260507140004 | 21 | 11 | 0.0 | 11.3 | 0.00 | 0.20 | 0.00 | 56 | 953.9 |
| 20260507135503 | 21 | 72 | 4.8 | 11.3 | 0.00 | 0.20 | 0.00 | 55 | 953.9 |
| 20260507135004 | 21 | 90 | 4.8 | 11.3 | 0.00 | 0.20 | 0.00 | 53 | 953.9 |
| 20260507134503 | 21 | 24 | 1.6 | 11.3 | 0.00 | 0.20 | 0.00 | 53 | 953.9 |
| 20260507134003 | 21 | 94 | 4.8 | 11.3 | 0.00 | 0.20 | 0.00 | 53 | 954.0 |
| 20260507133503 | 21 | 98 | 3.2 | 11.3 | 0.00 | 0.20 | 0.00 | 54 | 954.0 |
| 20260507133003 | 21 | 65 | 3.2 | 11.3 | 0.00 | 0.20 | 0.00 | 51 | 954.0 |
| 20260507132503 | 21 | 43 | 4.8 | 11.3 | 0.00 | 0.20 | 0.00 | 52 | 954.0 |
| 20260507132003 | 21 | 60 | 3.2 | 9.7 | 0.00 | 0.20 | 0.00 | 53 | 954.1 |
| 20260507131503 | 21 | 95 | 1.6 | 8.0 | 0.00 | 0.20 | 0.00 | 52 | 954.1 |
| 20260507131003 | 21 | 13 | 3.2 | 12.9 | 0.00 | 0.20 | 0.00 | 52 | 954.1 |
| 20260507130503 | 21 | 38 | 4.8 | 12.9 | 0.00 | 0.20 | 0.00 | 54 | 954.3 |
| 20260507130004 | 21 | 95 | 8.0 | 14.5 | 0.00 | 0.20 | 0.00 | 54 | 954.3 |
| 20260507125504 | 21 | 90 | 6.4 | 16.1 | 0.00 | 0.20 | 0.00 | 54 | 954.3 |
| 20260507125004 | 21 | 84 | 9.7 | 16.1 | 0.00 | 0.20 | 0.00 | 54 | 954.5 |
| 20260507124508 | 21 | 35 | 8.0 | 16.1 | 0.00 | 0.20 | 0.00 | 52 | 954.5 |
| 20260507124003 | 21 | 43 | 4.8 | 11.3 | 0.00 | 0.20 | 0.00 | 54 | 954.5 |
| 20260507123503 | 21 | 59 | 3.2 | 9.7 | 0.00 | 0.20 | 0.00 | 55 | 954.5 |
| 20260507123004 | 21 | 82 | 4.8 | 9.7 | 0.00 | 0.20 | 0.00 | 56 | 954.5 |
| 20260507122504 | 21 | 87 | 4.8 | 8.0 | 0.00 | 0.20 | 0.00 | 53 | 954.6 |
| 20260507122004 | 21 | 188 | 1.6 | 6.4 | 0.00 | 0.20 | 0.00 | 53 | 954.6 |
| 20260507121504 | 21 | 57 | 3.2 | 12.9 | 0.00 | 0.20 | 0.00 | 55 | 954.7 |
| 20260507121004 | 21 | 86 | 4.8 | 12.9 | 0.00 | 0.20 | 0.00 | 53 | 954.6 |
| 20260507120504 | 21 | 64 | 6.4 | 12.9 | 0.00 | 0.20 | 0.00 | 54 | 954.7 |
| 20260507120005 | 21 | 93 | 8.0 | 12.9 | 0.00 | 0.20 | 0.00 | 54 | 954.7 |
| 20260507115504 | 21 | 44 | 0.0 | 11.3 | 0.00 | 0.20 | 0.00 | 54 | 954.7 |
| 20260507115004 | 21 | 14 | 4.8 | 11.3 | 0.00 | 0.20 | 0.00 | 55 | 954.8 |
| 20260507114504 | 21 | 88 | 3.2 | 9.7 | 0.00 | 0.20 | 0.00 | 56 | 954.8 |
| 20260507114004 | 20 | 16 | 3.2 | 8.0 | 0.00 | 0.20 | 0.00 | 57 | 954.8 |
| 20260507113504 | 20 | 293 | 3.2 | 9.7 | 0.00 | 0.20 | 0.00 | 55 | 954.9 |
| 20260507113005 | 20 | 136 | 0.0 | 9.7 | 0.00 | 0.20 | 0.00 | 56 | 954.8 |
| 20260507112504 | 20 | 15 | 3.2 | 9.7 | 0.00 | 0.20 | 0.00 | 56 | 954.8 |
| 20260507112004 | 20 | 5 | 3.2 | 9.7 | 0.00 | 0.20 | 0.00 | 57 | 954.8 |
| 20260507111506 | 20 | 105 | 3.2 | 8.0 | 0.00 | 0.20 | 0.00 | 57 | 954.8 |
| 20260507111005 | 20 | 50 | 3.2 | 8.0 | 0.00 | 0.20 | 0.00 | 57 | 954.8 |
| 20260507110504 | 20 | 339 | 0.0 | 8.0 | 0.00 | 0.20 | 0.00 | 58 | 954.8 |
| 20260507105504 | 20 | 131 | 1.6 | 8.0 | 0.00 | 0.20 | 0.00 | 56 | 954.8 |
| 20260507105004 | 20 | 53 | 1.6 | 8.0 | 0.00 | 0.20 | 0.00 | 58 | 954.8 |
| 20260507104504 | 20 | 62 | 1.6 | 8.0 | 0.00 | 0.20 | 0.00 | 59 | 954.9 |
| 20260507104004 | 19 | 67 | 3.2 | 8.0 | 0.00 | 0.20 | 0.00 | 60 | 955.0 |
| 20260507103504 | 19 | 97 | 4.8 | 6.4 | 0.00 | 0.20 | 0.00 | 62 | 955.0 |
| 20260507103004 | 19 | 92 | 1.6 | 6.4 | 0.00 | 0.20 | 0.00 | 62 | 955.0 |
| 20260507102504 | 19 | 277 | 0.0 | 6.4 | 0.00 | 0.20 | 0.00 | 62 | 955.0 |
| 20260507102006 | 18 | 339 | 1.6 | 8.0 | 0.00 | 0.20 | 0.00 | 64 | 955.1 |
| 20260507101504 | 18 | 313 | 3.2 | 8.0 | 0.00 | 0.20 | 0.00 | 61 | 955.1 |
| 20260507101004 | 18 | 280 | 0.0 | 8.0 | 0.00 | 0.20 | 0.00 | 63 | 955.3 |
| 20260507100504 | 18 | 43 | 4.8 | 9.7 | 0.00 | 0.20 | 0.00 | 65 | 955.3 |
| 20260507100004 | 18 | 75 | 1.6 | 9.7 | 0.00 | 0.20 | 0.00 | 65 | 955.4 |
| 20260507095504 | 18 | 81 | 1.6 | 8.0 | 0.00 | 0.20 | 0.00 | 66 | 955.2 |
| 20260507095004 | 18 | 29 | 1.6 | 8.0 | 0.00 | 0.20 | 0.00 | 65 | 955.2 |
| 20260507094504 | 18 | 315 | 0.0 | 4.8 | 0.00 | 0.20 | 0.00 | 64 | 955.2 |
| 20260507094004 | 18 | 349 | 1.6 | 9.7 | 0.00 | 0.20 | 0.00 | 64 | 955.2 |
| 20260507093504 | 17 | 21 | 3.2 | 9.7 | 0.00 | 0.20 | 0.00 | 67 | 955.2 |
| 20260507093004 | 17 | 94 | 3.2 | 9.7 | 0.00 | 0.20 | 0.00 | 69 | 955.2 |
| 20260507092504 | 17 | 359 | 0.0 | 8.0 | 0.00 | 0.20 | 0.00 | 68 | 955.2 |
| 20260507092004 | 17 | 91 | 3.2 | 9.7 | 0.00 | 0.20 | 0.00 | 69 | 955.2 |
| 20260507091504 | 17 | 101 | 3.2 | 9.7 | 0.00 | 0.20 | 0.00 | 68 | 955.3 |
| 20260507091004 | 17 | 343 | 1.6 | 8.0 | 0.00 | 0.20 | 0.00 | 68 | 955.3 |
| 20260507090504 | 17 | 78 | 1.6 | 8.0 | 0.00 | 0.20 | 0.00 | 68 | 955.4 |
| 20260507090005 | 17 | 53 | 0.0 | 8.0 | 0.00 | 0.20 | 0.00 | 65 | 955.4 |
| 20260507085504 | 17 | 21 | 3.2 | 6.4 | 0.00 | 0.20 | 0.00 | 67 | 955.5 |
| 20260507085004 | 17 | 32 | 0.0 | 4.8 | 0.00 | 0.20 | 0.00 | 67 | 955.5 |
| 20260507084504 | 17 | 39 | 0.0 | 3.2 | 0.00 | 0.20 | 0.00 | 68 | 955.5 |
| 20260507084004 | 16 | 271 | 0.0 | 4.8 | 0.00 | 0.20 | 0.00 | 69 | 955.4 |
| 20260507083504 | 16 | 0 | 0.0 | 4.8 | 0.00 | 0.20 | 0.00 | 72 | 955.4 |
| 20260507083004 | 16 | 104 | 0.0 | 4.8 | 0.00 | 0.20 | 0.00 | 72 | 955.5 |
| 20260507082504 | 16 | 104 | 0.0 | 4.8 | 0.00 | 0.20 | 0.00 | 75 | 955.6 |
| 20260507082004 | 15 | 63 | 1.6 | 6.4 | 0.00 | 0.20 | 0.00 | 75 | 955.6 |
| 20260507081504 | 15 | 125 | 3.2 | 6.4 | 0.00 | 0.20 | 0.00 | 76 | 955.7 |
| 20260507081004 | 15 | 116 | 0.0 | 6.4 | 0.00 | 0.20 | 0.00 | 79 | 955.6 |
| 20260507080504 | 14 | 118 | 1.6 | 6.4 | 0.00 | 0.20 | 0.00 | 78 | 955.6 |
| 20260507080004 | 14 | 182 | 3.2 | 4.8 | 0.00 | 0.20 | 0.00 | 78 | 955.6 |
| 20260507075503 | 14 | 105 | 1.6 | 6.4 | 0.00 | 0.51 | 0.00 | 80 | 955.7 |
| 20260507075004 | 14 | 92 | 3.2 | 6.4 | 0.00 | 0.51 | 0.00 | 80 | 955.7 |
| 20260507074005 | 13 | 88 | 0.0 | 6.4 | 0.00 | 0.51 | 0.00 | 80 | 955.6 |
| 20260507073503 | 13 | 76 | 3.2 | 6.4 | 0.00 | 0.51 | 0.00 | 80 | 955.6 |
| 20260507073004 | 13 | 46 | 0.0 | 3.2 | 0.00 | 0.51 | 0.00 | 82 | 955.5 |
| 20260507072503 | 14 | 289 | 1.6 | 8.0 | 0.00 | 0.51 | 0.00 | 79 | 955.3 |
| 20260507072004 | 14 | 304 | 0.0 | 8.0 | 0.00 | 0.51 | 0.00 | 81 | 955.4 |
| 20260507071504 | 13 | 331 | 0.0 | 3.2 | 0.00 | 0.51 | 0.00 | 84 | 955.4 |
| 20260507071003 | 12 | 342 | 0.0 | 4.8 | 0.00 | 0.51 | 0.00 | 86 | 955.3 |
| 20260507070504 | 12 | 300 | 0.0 | 4.8 | 0.00 | 0.51 | 0.00 | 86 | 955.4 |
| 20260507070009 | 12 | 100 | 0.0 | 4.8 | 0.00 | 0.51 | 0.00 | 88 | 955.4 |
| 20260507065503 | 12 | 66 | 0.0 | 4.8 | 0.00 | 0.71 | 0.00 | 87 | 955.4 |
| 20260507065004 | 12 | 316 | 0.0 | 1.6 | 0.00 | 0.71 | 0.00 | 89 | 955.4 |
| 20260507064504 | 12 | 0 | 0.0 | 1.6 | 0.00 | 0.71 | 0.00 | 90 | 955.5 |
| 20260507064003 | 12 | 0 | 0.0 | 4.8 | 0.00 | 0.71 | 0.00 | 90 | 955.5 |
| 20260507063503 | 12 | 324 | 1.6 | 4.8 | 0.00 | 0.71 | 0.00 | 88 | 955.4 |
| 20260507063003 | 12 | 0 | 0.0 | 1.6 | 0.00 | 0.71 | 0.00 | 92 | 955.3 |
| 20260507062503 | 11 | 0 | 0.0 | 1.6 | 0.00 | 0.71 | 0.00 | 94 | 955.4 |
| 20260507062003 | 11 | 0 | 0.0 | 1.6 | 0.00 | 0.71 | 0.00 | 93 | 955.4 |
| 20260507061503 | 11 | 0 | 0.0 | 0.0 | 0.00 | 0.71 | 0.00 | 94 | 955.5 |
| 20260507061003 | 11 | 0 | 0.0 | 0.0 | 0.00 | 0.71 | 0.00 | 94 | 955.4 |
| 20260507060503 | 11 | 0 | 0.0 | 0.0 | 0.00 | 0.71 | 0.00 | 94 | 955.5 |
| 20260507060003 | 11 | 0 | 0.0 | 0.0 | 0.00 | 0.71 | 0.00 | 95 | 955.5 |
| 20260507055503 | 11 | 0 | 0.0 | 1.6 | 0.00 | 0.79 | 0.00 | 95 | 955.4 |
| 20260507055003 | 11 | 0 | 0.0 | 1.6 | 0.00 | 0.79 | 0.00 | 95 | 955.4 |
| 20260507054503 | 11 | 0 | 0.0 | 0.0 | 0.00 | 0.79 | 0.00 | 95 | 955.4 |
| 20260507054003 | 11 | 0 | 0.0 | 0.0 | 0.00 | 0.79 | 0.00 | 95 | 955.4 |
| 20260507053004 | 10 | 0 | 0.0 | 1.6 | 0.00 | 0.79 | 0.00 | 95 | 955.2 |
| 20260507052503 | 10 | 222 | 0.0 | 3.2 | 0.00 | 0.79 | 0.00 | 95 | 955.1 |
| 20260507052003 | 10 | 0 | 0.0 | 3.2 | 0.00 | 0.79 | 0.00 | 95 | 955.0 |
| 20260507051503 | 10 | 196 | 0.0 | 1.6 | 0.00 | 0.79 | 0.00 | 96 | 955.1 |
| 20260507051003 | 10 | 0 | 0.0 | 1.6 | 0.00 | 0.79 | 0.00 | 96 | 955.2 |
| 20260507050503 | 10 | 126 | 1.6 | 1.6 | 0.00 | 0.79 | 0.00 | 96 | 955.2 |
| 20260507050003 | 10 | 85 | 0.0 | 1.6 | 0.00 | 0.79 | 0.00 | 96 | 955.2 |
| 20260507045503 | 10 | 334 | 0.0 | 1.6 | 0.00 | 0.79 | 0.00 | 96 | 955.1 |
| 20260507045003 | 10 | 0 | 0.0 | 0.0 | 0.00 | 0.79 | 0.00 | 96 | 955.1 |
| 20260507044503 | 10 | 0 | 0.0 | 0.0 | 0.00 | 0.79 | 0.00 | 96 | 955.0 |
| 20260507044003 | 10 | 0 | 0.0 | 1.6 | 0.00 | 0.79 | 0.00 | 96 | 955.0 |
| 20260507043503 | 10 | 0 | 0.0 | 1.6 | 0.00 | 0.79 | 0.00 | 96 | 955.0 |
| 20260507043003 | 10 | 101 | 0.0 | 1.6 | 0.00 | 0.79 | 0.00 | 96 | 954.8 |
| 20260507042503 | 10 | 0 | 0.0 | 0.0 | 0.00 | 0.79 | 0.00 | 96 | 954.8 |
| 20260507042003 | 10 | 0 | 0.0 | 0.0 | 0.00 | 0.79 | 0.00 | 96 | 954.8 |
| 20260507041503 | 10 | 0 | 0.0 | 0.0 | 0.00 | 0.79 | 0.00 | 96 | 954.8 |
| 20260507041003 | 10 | 0 | 0.0 | 4.8 | 0.00 | 0.79 | 0.00 | 96 | 954.9 |
| 20260507040503 | 10 | 0 | 0.0 | 4.8 | 0.00 | 0.79 | 0.00 | 96 | 954.8 |
| 20260507040003 | 10 | 96 | 1.6 | 4.8 | 0.00 | 0.79 | 0.00 | 96 | 954.7 |
| 20260507035503 | 10 | 0 | 0.0 | 3.2 | 0.00 | 0.99 | 0.00 | 96 | 954.8 |
| 20260507035003 | 10 | 82 | 0.0 | 3.2 | 0.10 | 0.99 | 0.00 | 96 | 954.8 |
| 20260507034503 | 10 | 115 | 0.0 | 3.2 | 0.10 | 0.99 | 0.00 | 96 | 954.7 |
| 20260507034003 | 10 | 340 | 0.0 | 1.6 | 0.10 | 0.99 | 0.00 | 95 | 954.7 |
| 20260507033503 | 10 | 46 | 0.0 | 1.6 | 0.10 | 0.99 | 0.00 | 95 | 954.7 |
| 20260507033003 | 10 | 0 | 0.0 | 1.6 | 0.10 | 0.99 | 0.00 | 95 | 954.7 |
| 20260507032503 | 10 | 79 | 0.0 | 1.6 | 0.20 | 0.99 | 0.00 | 95 | 954.6 |
| 20260507032003 | 10 | 0 | 0.0 | 0.0 | 0.20 | 0.99 | 0.00 | 95 | 954.7 |
| 20260507031503 | 10 | 0 | 0.0 | 0.0 | 0.20 | 0.99 | 0.00 | 95 | 954.7 |
| 20260507031003 | 10 | 0 | 0.0 | 0.0 | 0.20 | 0.99 | 0.00 | 94 | 954.7 |
| 20260507030503 | 10 | 0 | 0.0 | 0.0 | 0.20 | 0.99 | 0.00 | 94 | 954.6 |
| 20260507025503 | 10 | 0 | 0.0 | 3.2 | 0.20 | 1.40 | 0.00 | 94 | 954.6 |
| 20260507025003 | 10 | 92 | 0.0 | 3.2 | 0.10 | 1.30 | 0.00 | 93 | 954.6 |
| 20260507024503 | 10 | 97 | 0.0 | 1.6 | 0.10 | 1.30 | 0.00 | 93 | 954.6 |
| 20260507024003 | 10 | 67 | 0.0 | 1.6 | 0.10 | 1.30 | 0.00 | 92 | 954.6 |
| 20260507023503 | 10 | 95 | 0.0 | 1.6 | 0.10 | 1.30 | 0.00 | 92 | 954.7 |
| 20260507023003 | 11 | 97 | 0.0 | 3.2 | 0.10 | 1.30 | 0.00 | 91 | 954.6 |
| 20260507022503 | 11 | 137 | 0.0 | 6.4 | 0.00 | 1.19 | 0.00 | 91 | 954.7 |
| 20260507022003 | 11 | 135 | 3.2 | 6.4 | 0.00 | 1.19 | 0.00 | 90 | 954.7 |
| 20260507021503 | 11 | 143 | 0.0 | 1.6 | 0.00 | 1.19 | 0.00 | 89 | 954.7 |
| 20260507021003 | 11 | 0 | 0.0 | 6.4 | 0.00 | 1.19 | 0.00 | 90 | 954.8 |
| 20260507020503 | 11 | 111 | 0.0 | 6.4 | 0.00 | 1.19 | 0.00 | 89 | 954.7 |
| 20260507020003 | 11 | 113 | 0.0 | 4.8 | 0.00 | 1.19 | 0.00 | 89 | 954.6 |
| 20260507015502 | 11 | 124 | 0.0 | 4.8 | 0.00 | 1.19 | 0.00 | 89 | 954.6 |
| 20260507015003 | 11 | 126 | 0.0 | 8.0 | 0.00 | 1.19 | 0.00 | 89 | 954.6 |
| 20260507014502 | 11 | 158 | 3.2 | 8.0 | 0.00 | 1.19 | 0.00 | 88 | 954.4 |
| 20260507014003 | 11 | 155 | 1.6 | 4.8 | 0.00 | 1.19 | 0.00 | 88 | 954.4 |
| 20260507013502 | 11 | 88 | 0.0 | 1.6 | 0.00 | 1.19 | 0.00 | 88 | 954.4 |
| 20260507013003 | 11 | 65 | 0.0 | 1.6 | 0.00 | 1.19 | 0.00 | 88 | 954.5 |
| 20260507012503 | 11 | 0 | 0.0 | 3.2 | 0.00 | 1.19 | 0.00 | 87 | 954.5 |